EW5980 Weather Reports


Display with metric or nautical units.
time (UTC)temp
F
wind
direction
speed
MPH
gust
MPH
rain 1hr
in
rain 24hr
in
rain mn
in
humidity
%
barometer
mb
20260509071545 64 0.0 0.0 0.00 0.00 0.00 100 1011.8
20260509070045 64 0.0 0.0 0.00 0.00 0.00 100 1011.7
20260509064547 64 0.0 0.0 0.00 0.00 0.00 100 1011.9
20260509063041 64 0.0 0.0 0.00 0.00 0.00 100 1011.8
20260509061549 64 0.0 0.0 0.00 0.00 0.00 100 1011.9
20260509060047 64 0.0 0.0 0.00 0.00 0.00 100 1012.0
20260509054548 64 0.0 0.0 0.00 0.00 0.00 100 1012.1
20260509053051 64 0.0 0.0 0.00 0.00 0.00 100 1012.6
20260509051550 64 0.0 0.0 0.00 0.00 0.00 100 1012.6
20260509050040 64 0.0 0.0 0.00 0.00 0.00 100 1012.5
20260509044546 64 0.0 0.0 0.00 0.00 0.00 100 1012.3
20260509043055 64 0.0 0.0 0.00 0.00 0.00 100 1012.0
20260509041544 64 0.0 0.0 0.00 0.00 0.00 100 1011.9
20260509040047 64 0.0 0.0 0.00 0.00 0.00 100 1011.8
20260509034540 64 0.0 0.0 0.00 0.00 0.00 1 1011.6
20260509033046 64 0.0 0.0 0.00 0.00 0.00 3 1011.6
20260509031547 64 0.0 0.0 0.00 0.00 0.00 5 1011.9
20260509030045 64 0.0 0.0 0.00 0.00 0.00 6 1012.0
20260509024541 64 0.0 0.0 0.00 0.00 0.00 8 1011.9
20260509023042 65 0.0 0.0 0.00 0.00 0.00 10 1011.6
20260509021548 65 0.0 0.0 0.00 0.00 0.00 12 1011.9
20260509020045 65 0.0 0.0 0.00 0.00 0.00 14 1012.0
20260509014559 65 0.0 0.0 0.00 0.00 0.00 17 1011.7
20260509013057 65 0.0 0.0 0.00 0.00 0.00 19 1011.6
20260509011542 65 0.0 0.0 0.00 0.00 0.00 22 1011.3
20260509010043 65 0.0 0.0 0.00 0.00 0.00 23 1011.7
20260509004601 65 0.0 0.0 0.00 0.00 0.00 26 1012.1
20260509003049 66 0.0 0.0 0.00 0.00 0.00 29 1012.4
20260509001543 66 0.0 0.0 0.00 0.00 0.00 32 1012.5
20260509000045 66 0.0 0.0 0.00 0.00 0.00 36 1012.3
20260508234545 66 0.0 0.0 0.00 0.00 0.00 40 1012.1
20260508233040 66 0.0 0.0 0.00 0.00 0.00 45 1011.9
20260508231540 67 0.0 0.0 0.00 0.00 0.00 49 1012.4
20260508230052 67 0.0 0.0 0.00 0.00 0.00 54 1012.2
20260508224543 67 0.0 0.0 0.00 0.00 0.00 57 1012.2
20260508223041 67 0.0 0.0 0.00 0.00 0.00 59 1012.3
20260508221544 67 0.0 0.0 0.00 0.00 0.00 60 1012.2
20260508220051 66 0.0 0.0 0.00 0.00 0.00 63 1012.2
20260508214547 66 0.0 0.0 0.00 0.00 0.00 63 1011.9
20260508213044 65 0.0 0.0 0.00 0.00 0.00 61 1012.4
20260508211541 65 0.0 0.0 0.00 0.00 0.00 62 1012.8
20260508210050 65 0.0 0.0 0.00 0.00 0.00 63 1013.2
20260508204541 65 0.0 0.0 0.00 0.00 0.00 64 1013.6
20260508203040 64 0.0 0.0 0.00 0.00 0.00 64 1013.7
20260508201539 64 0.0 0.0 0.00 0.00 0.00 66 1013.7
20260508200049 64 0.0 0.0 0.00 0.00 0.00 67 1014.0
20260508194547 64 0.0 0.0 0.00 0.00 0.00 69 1014.0
20260508193047 64 0.0 0.0 0.00 0.00 0.00 70 1014.4
20260508191542 64 0.0 0.0 0.00 0.00 0.00 71 1014.3
20260508190052 65 0.0 0.0 0.00 0.00 0.00 71 1014.1
20260508184557 65 0.0 0.0 0.00 0.00 0.00 72 1014.2
20260508183042 65 0.0 0.0 0.00 0.00 0.00 72 1014.9
20260508181555 65 0.0 0.0 0.00 0.00 0.00 71 1014.7
20260508180041 65 0.0 0.0 0.00 0.00 0.00 71 1015.4
20260508174543 65 0.0 0.0 0.00 0.00 0.00 71 1015.2
20260508173051 64 0.0 0.0 0.00 0.00 0.00 72 1014.6
20260508171543 64 0.0 0.0 0.00 0.00 0.00 72 1015.5
20260508170043 64 0.0 0.0 0.00 0.00 0.00 71 1015.8
20260508164557 64 0.0 0.0 0.00 0.00 0.00 71 1015.6
20260508163040 64 0.0 0.0 0.00 0.00 0.00 71 1016.0
20260508161549 64 0.0 0.0 0.00 0.00 0.00 71 1016.2
20260508160047 64 0.0 0.0 0.00 0.00 0.00 71 1015.9
20260508154545 64 0.0 0.0 0.00 0.00 0.00 71 1016.0
20260508153043 65 0.0 0.0 0.00 0.00 0.00 71 1016.3
20260508151544 65 0.0 0.0 0.00 0.00 0.00 71 1016.3
20260508150047 65 0.0 0.0 0.00 0.00 0.00 71 1016.3
20260508144600 64 0.0 0.0 0.00 0.00 0.00 71 1016.5
20260508143045 64 0.0 0.0 0.00 0.00 0.00 71 1016.4
20260508141552 64 0.0 0.0 0.00 0.00 0.00 70 1015.9
20260508140049 63 0.0 0.0 0.00 0.00 0.00 70 1015.9
20260508134551 63 0.0 0.0 0.00 0.00 0.00 69 1016.1
20260508133108 63 0.0 0.0 0.00 0.00 0.00 67 1016.3
20260508131542 62 0.0 0.0 0.00 0.00 0.00 67 1016.0
20260508130045 62 0.0 0.0 0.00 0.00 0.00 65 1016.1
20260508124542 62 0.0 0.0 0.00 0.00 0.00 63 1016.0
20260508123056 61 0.0 0.0 0.00 0.00 0.00 61 1016.4
20260508121540 61 0.0 0.0 0.00 0.00 0.00 58 1016.9
20260508120045 61 0.0 0.0 0.00 0.00 0.00 57 1016.8
20260508114545 61 0.0 0.0 0.00 0.00 0.00 52 1016.8
20260508113058 61 0.0 0.0 0.00 0.00 0.00 52 1016.5
20260508111545 60 0.0 0.0 0.00 0.00 0.00 49 1016.1
20260508110050 60 0.0 0.0 0.00 0.00 0.00 46 1016.1
20260508104539 60 0.0 0.0 0.00 0.00 0.00 45 1016.2
20260508103056 60 0.0 0.0 0.00 0.00 0.00 49 1016.0
20260508101547 60 0.0 0.0 0.00 0.00 0.00 52 1016.0
20260508100046 60 0.0 0.0 0.00 0.00 0.00 55 1015.7
20260508094542 60 0.0 0.0 0.00 0.00 0.00 57 1015.4
20260508093042 60 0.0 0.0 0.00 0.00 0.00 59 1015.2
20260508091553 60 0.0 0.0 0.00 0.00 0.00 59 1015.1
20260508090059 61 0.0 0.0 0.00 0.00 0.00 60 1015.2
20260508084542 61 0.0 0.0 0.00 0.00 0.00 61 1014.9
20260508083042 61 0.0 0.0 0.00 0.00 0.00 61 1014.7
20260508081542 61 0.0 0.0 0.00 0.00 0.00 62 1014.9
20260508080041 61 0.0 0.0 0.00 0.00 0.00 61 1015.0
20260508074546 61 0.0 0.0 0.00 0.00 0.00 59 1015.2
20260508073051 61 0.0 0.0 0.00 0.00 0.00 57 1015.2